SCP
0 0 0 0 0 0 0 0 0 0 0 0 0 0 0 0 0 0 0 0 0 0 0 0 0 0 0 0 0 0 0 0 0 0 0 0 0 0 0 0 0 0 -0 0
0 0 -0 0 0 0 0 0 0 0 0 0 0 0 0 0 0 0 0 0 0 0 0 0 0 0 0 0 0 0 0 0 0 0 0 0 0 0 0 0 0 0 -0 0
0 -0 0 0 0 0 0 0 0 0 -0 -0 -0 -0 0 0 0 0 0 0 0 0 0 0 0 0 0 0 0 0 0 0 0 0 0 0 0 0 0 0 0 0 -0 -0
0 0 0 0 0 0 0 0 -0 0 0 0 0 -0 0 0 0 0 0 0 0 0 0 0 0 0 0 0 0 0 0 -0 0 0 0 0 0 0 0 0 0 0 0 -0
0 0 -0 0 0 0 0 0 0 -0 0 0 0 0 0 0 0 0 0 0 0 0 0 0 0 0 0 0 0 0 0 -0 0 -0 -0 0 0 0 -0 0 -0 0 0 -0
-0 0 0 0 0 0 0 0 0 0 0 0 0 0 0 0 0 0 0 0 0 0 0 0 0 0 0 0 0 0 0 0 0 0 0 0 0 0 -0 -0 -0 0 0 0
0 0 0 0 0 0 0 0 0 0 0 0 0 0 0 0 0 0 0 0 0 0 0 -0 -0 0 0 0 0 0 0 0 0 0 0 0 0 0 0 0 -0 0 0 0
0 0 0 0 0 0 0 0 0 0 0 0 0 0 0 0 0 0 0 0 0 -0 -0 -0 -0 0 -0 -0 0 0 0 0 -0 0 0 0 0 0 0 0 -0 0 0 0
0 0 -0 0 0 0 0 0 0 0 -0 0 0 0 0 -0 -0 0 0 0 -0 -0 -0 -0 -0 -0 -0 -0 -0 0 0 0 0 -0 0 0 0 -0 0 0 0 0 0 0
0 0 0 0 0 0 0 0 0 0 0 0 0 0 -0 0 0 0 0 0 -0 -0 -0 -0 -0 -0 -0 -0 -0 0 0 0 -0 -0 -0 0 0 -0 0 0 0 0 0 0
0 0 0 0 0 0 0 0 0 -0 0 0 0 0 0 -0 0 0 0 0 -0 -0 -0 -0 -0 -0 -0 -0 -0 0 0 0 -0 -0 -0 -0 0 -0 -0 0 0 0 0 0
0 0 0 0 0 0 0 0 0 0 0 0 -0 0 0 0 0 -0 0 0 -0 -0 -0 -0 -0 -0 -0 -0 -0 -0 0 0 -0 -0 -0 -0 -0 0 -0 -0 -0 0 0 0
0 0 0 0 0 0 -0 0 0 0 -0 -0 0 -0 0 0 0 0 0 0 -0 -0 -0 -0 -0 -0 -0 -0 -0 -0 -0 -0 0 -0 -0 -0 0 0 -0 -0 -0 -0 0 0
0 0 0 0 0 0 0 0 0 0 0 0 0 0 0 0 0 0 0 0 -0 -0 -0 -0 -0 -0 -0 -0 -0 -0 -0 -0 -0 0 -0 -0 0 0 0 0 0 -0 0 0
0 0 0 0 0 0 0 0 0 0 0 0 0 -0 0 -0 0 0 0 0 -0 -0 -0 -0 -0 -0 -0 -0 -0 -0 -0 -0 -0 -0 0 -0 -0 0 0 0 -0 0 0 0
0 0 0 0 0 0 0 0 0 0 0 0 -0 0 -0 0 -0 0 0 0 -0 -0 -0 -0 -0 -0 -0 -0 -0 -0 -0 -0 -0 -0 -0 -0 -0 -0 0 0 0 0 0 0
0 0 0 0 0 0 0 0 0 0 0 -0 -0 -0 -0 0 0 0 0 -0 -0 -0 -0 -0 -0 -0 -0 -0 -0 -0 -0 -0 -0 -0 -0 -0 -0 -0 -0 -0 -0 -0 -0 -0
0 0 0 0 0 0 0 0 0 0 0 0 -0 -0 -0 -0 0 0 0 -0 -0 -0 -0 -0 -0 -0 -0 -0 -0 -0 -0 -0 -0 -0 -0 -0 -0 -0 -0 0 -0 -0 -0 -0
0 0 0 0 0 0 0 0 0 0 -0 -0 0 -0 0 0 0 0 0 0 0 0 0 -0 -0 -0 -0 -0 -0 -0 -0 -0 -0 -0 -0 -0 -0 -0 -0 -0 -0 -0 -0 -0
0 0 0 0 0 0 0 0 0 0 0 0 0 -0 -0 0 0 -0 0 0 0 0 0 0 -0 -0 -0 -0 -0 -0 -0 -0 -0 -0 -0 -0 -0 -0 -0 -0 -0 0 0 0
0 0 0 0 0 0 0 0 0 0 0 0 0 -0 -0 -0 -0 0 0 0 0 0 0 0 0 0 -0 -0 -0 -0 -0 -0 -0 -0 -0 -0 -0 -0 -0 -0 0 0 0 0
0 0 0 0 0 0 0 0 0 0 0 0 0 0 0 -0 -0 0 0 0 0 0 0 -0 0 0 -0 -0 -0 -0 -0 -0 -0 -0 -0 -0 -0 -0 -0 -0 0 0 0 0
0 0 0 0 0 0 0 0 0 0 0 0 0 0 0 -0 0 0 0 0 0 0 0 0 0 0 0 -0 -0 -0 -0 0 0 0 -0 -0 -0 -0 -0 -0 -0 0 0 0
0 0 0 0 0 0 0 0 0 0 0 0 0 0 0 -0 0 0 0 0 0 0 0 0 0 0 0 0 -0 0 0 0 0 0 0 0 0 0 0 0 -0 -0 0 -0
0 0 0 0 0 0 0 0 0 -0 -0 0 0 0 0 0 0 0 0 0 0 0 0 0 0 0 0 0 0 0 0 0 0 0 0 0 0 0 0 0 0 0 0 0
0 0 0 0 0 0 0 0 0 0 0 -0 0 0 0 0 0 0 0 0 0 0 0 0 0 0 0 0 0 0 0 0 0 0 0 0 0 0 0 0 0 0 0 0
Wind_Speed_500mb
51 33 45 51 43 34 21 23 27 19 13 19 27 25 29 38 33 30 32 37 43 40 33 30 25 16 7 4 6 10 12 21 22 19 19 19 17 15 12 17 16 18 20 17
33 46 48 44 38 33 28 32 32 17 20 14 27 31 33 31 27 24 28 35 39 37 38 34 27 19 9 4 2 6 10 18 20 17 22 18 17 15 25 16 20 9 15 12
47 46 46 42 35 38 35 35 27 22 21 23 25 33 15 16 17 22 24 28 34 42 43 38 32 23 13 6 3 1 7 16 18 22 20 21 17 20 27 39 35 22 7 12
46 46 48 37 47 41 41 30 29 26 23 22 5 26 22 17 18 18 19 24 31 39 42 39 35 26 18 11 9 4 6 12 15 22 21 23 14 12 21 29 32 37 26 21
51 49 49 51 47 42 36 26 26 29 23 22 30 14 17 10 16 12 14 16 23 35 44 42 37 27 21 16 12 6 4 10 13 19 22 19 16 17 13 21 29 29 26 21
49 40 40 45 34 32 32 16 20 16 21 22 29 17 18 7 7 18 6 4 17 33 43 40 35 28 24 20 14 9 5 9 9 12 20 23 19 22 23 8 18 23 25 25
51 45 43 36 40 26 35 28 19 20 19 22 4 12 21 18 16 16 18 18 16 36 47 45 40 32 28 25 18 12 8 6 11 12 14 20 23 24 24 18 24 24 24 26
45 49 52 37 46 33 42 37 22 21 22 21 13 13 7 1 7 12 12 9 22 42 48 46 41 33 29 27 23 16 10 8 10 11 12 16 24 20 27 24 29 25 23 32
46 49 56 48 42 43 31 36 35 32 28 16 22 10 22 10 9 7 1 9 29 44 47 45 40 34 31 29 25 20 13 10 10 9 10 13 19 30 34 33 28 17 18 22
23 42 32 47 44 47 40 31 21 20 28 29 16 13 14 11 5 8 11 18 33 43 47 46 42 36 33 30 26 22 15 10 12 11 10 12 16 20 29 25 24 23 23 30
31 29 42 33 44 44 25 32 28 25 26 24 20 11 10 5 1 6 10 26 38 45 49 49 43 38 36 32 27 22 18 14 15 13 11 14 15 16 20 22 24 25 27 30
61 26 29 48 40 45 46 44 41 26 32 20 21 18 19 11 9 8 6 25 39 47 48 46 45 41 39 36 30 25 21 17 17 17 15 14 15 15 19 21 25 24 33 38
49 30 31 31 20 28 45 43 42 40 31 34 23 21 14 13 13 12 12 30 39 50 51 46 45 44 41 38 33 28 25 21 20 21 18 17 16 17 19 24 27 26 29 30
51 35 53 44 41 36 43 42 46 43 32 32 33 31 19 19 21 17 19 25 35 53 56 52 48 45 42 39 35 32 28 26 24 23 22 20 19 21 20 23 25 24 27 30
41 51 48 53 40 45 41 45 47 48 46 39 31 33 24 21 22 24 22 26 35 47 56 54 53 49 47 44 39 35 31 31 28 26 23 22 23 23 23 21 23 25 24 28
42 34 44 42 52 44 42 49 47 49 50 44 41 38 23 27 26 26 25 34 41 50 61 60 52 50 50 48 46 41 36 35 32 29 25 24 25 26 26 24 24 26 26 26
38 33 28 43 44 41 46 54 50 47 47 40 43 39 33 26 23 32 35 39 43 47 56 65 64 58 54 52 50 47 41 38 35 31 29 26 26 30 31 28 26 24 27 28
33 40 27 25 33 41 38 42 50 49 44 42 39 35 36 35 36 37 36 39 40 40 48 58 59 56 54 53 52 47 44 43 39 35 32 29 27 31 33 32 29 31 30 28
18 33 23 21 30 18 26 24 46 46 51 46 41 39 42 37 27 30 35 39 43 41 48 55 62 62 55 56 55 53 49 45 43 39 37 33 31 32 35 36 34 34 35 33
13 16 26 24 37 52 26 28 24 29 34 36 46 42 40 37 21 26 43 45 44 39 41 47 55 60 60 58 57 58 55 51 49 45 41 37 34 35 36 38 39 40 36 31
22 21 32 23 28 21 9 34 36 35 15 33 43 52 49 28 41 31 15 39 47 42 38 44 54 64 70 70 64 63 60 59 52 46 43 41 38 37 36 37 40 44 41 30
30 23 21 28 32 25 19 18 36 19 12 15 30 38 43 53 54 32 20 30 47 43 37 48 52 55 61 69 69 63 64 59 53 49 47 45 42 37 38 40 42 43 41 36
30 30 27 27 23 14 30 24 37 22 32 27 28 27 40 43 40 32 29 31 40 34 33 42 49 50 53 66 72 69 65 60 57 54 52 50 46 43 41 44 46 44 47 37
28 13 19 18 29 15 25 21 22 31 29 19 24 22 26 32 29 35 30 34 38 35 32 34 46 53 54 62 77 84 62 61 61 59 55 52 52 49 45 43 45 42 44 41
30 30 31 26 32 26 27 47 39 33 30 24 19 23 25 27 26 29 32 31 33 32 29 34 45 52 54 55 62 66 67 65 64 64 61 57 53 57 52 52 49 49 47 46
30 41 32 27 24 40 40 32 50 42 38 33 31 24 25 25 26 25 24 26 28 27 28 32 38 45 48 48 53 60 70 72 74 74 67 64 59 57 54 53 50 56 49 54
Wind_Direction_500mb
189 202 206 207 217 235 269 251 249 252 271 268 279 289 287 284 271 258 252 229 224 217 210 203 199 200 208 302 318 318 332 349 357 0 356 350 360 360 330 330 306 299 247 228
187 215 209 217 211 223 230 240 245 248 268 273 286 288 293 283 270 265 245 228 221 210 201 199 196 196 196 230 311 326 341 358 9 357 0 11 29 36 30 11 14 35 182 192
204 212 214 213 209 213 225 239 242 258 300 262 261 276 264 273 244 250 246 235 219 208 199 195 193 193 187 194 192 17 7 34 29 29 16 29 43 53 54 63 50 60 114 160
216 217 201 202 213 213 227 219 258 261 265 282 3 293 282 274 275 256 245 225 216 204 198 193 188 187 185 178 171 120 41 55 30 38 18 31 53 49 59 61 60 57 69 114
210 208 192 209 214 208 238 233 233 257 267 284 261 254 288 242 279 292 279 207 209 200 194 188 184 182 178 171 171 157 78 58 47 38 35 34 32 31 69 64 61 44 56 107
225 211 203 214 216 217 225 206 227 245 256 248 255 248 277 273 312 318 317 116 197 188 186 184 180 176 175 169 167 162 124 79 63 46 38 46 35 39 38 69 49 46 64 84
214 202 208 211 207 205 219 214 225 221 219 250 153 246 258 307 312 322 306 312 189 179 179 178 178 178 175 173 172 167 143 101 82 59 46 47 42 43 27 59 101 71 77 74
202 207 191 200 208 192 203 208 230 225 244 251 154 252 222 317 310 290 312 314 169 172 176 177 179 179 175 174 173 167 145 133 108 80 54 53 52 33 30 74 108 98 67 63
197 209 200 204 209 214 190 219 226 255 267 273 273 194 256 254 250 215 236 141 163 169 174 176 179 179 176 175 178 172 155 147 123 101 75 70 59 58 79 84 99 82 58 55
196 208 189 198 207 211 218 202 201 224 241 238 237 234 268 227 346 99 170 169 170 169 173 176 180 181 177 175 177 177 167 153 143 122 101 89 79 71 81 85 72 82 92 73
185 208 187 189 204 200 190 221 215 250 226 235 243 254 107 273 203 338 167 174 176 177 179 177 180 182 179 176 178 177 172 162 152 139 121 105 102 85 90 84 80 84 98 111
201 198 182 209 198 215 201 214 207 222 214 244 274 258 146 249 252 280 196 176 182 179 181 182 178 181 181 181 183 182 175 168 157 152 144 124 114 110 102 91 93 86 94 104
191 210 208 193 192 216 225 212 220 219 245 251 234 241 161 193 222 224 195 178 180 181 179 183 181 183 184 184 187 188 181 174 162 153 153 145 132 133 122 116 107 93 99 103
195 200 209 210 199 191 207 223 217 218 223 234 239 252 194 208 223 198 195 186 184 183 181 183 185 185 186 185 187 190 184 179 167 157 156 157 151 144 137 130 123 113 101 107
192 210 212 226 217 202 210 214 218 218 224 234 235 241 234 236 217 229 200 190 184 185 187 189 187 186 185 183 185 188 187 181 172 163 158 161 163 153 152 142 141 129 125 119
192 216 221 218 222 221 214 218 215 218 225 228 242 251 242 235 254 209 203 192 191 192 194 193 190 185 186 186 184 184 186 184 179 171 166 164 166 165 163 159 153 149 141 133
188 206 206 221 217 225 232 219 216 219 226 228 233 238 243 235 232 227 208 202 200 196 195 194 193 187 186 188 185 186 184 184 185 180 175 171 170 172 172 169 165 159 156 151
196 197 199 207 199 209 242 225 222 225 228 225 241 245 236 236 231 230 222 211 203 200 199 199 195 192 187 185 186 186 185 185 186 186 184 180 174 176 176 174 173 175 169 164
218 190 195 199 201 217 194 205 210 216 231 230 228 226 234 233 232 248 228 215 212 204 204 199 195 192 186 184 185 184 187 188 187 189 189 186 180 178 180 181 182 182 181 179
170 235 202 204 195 221 209 164 197 211 231 219 218 222 227 228 217 235 209 214 212 207 201 194 191 188 186 185 185 185 189 191 192 190 190 189 185 182 182 184 188 192 191 188
180 188 198 182 214 224 187 190 182 198 214 200 213 220 221 219 222 238 231 203 205 197 193 194 187 187 191 187 185 189 191 196 194 190 188 188 188 184 182 183 189 191 189 192
191 187 197 216 210 221 172 205 196 204 155 195 210 221 213 218 224 219 207 195 189 194 199 195 192 187 188 188 188 190 197 195 192 191 189 189 189 183 184 184 185 188 188 189
215 208 208 203 205 78 183 205 205 211 221 224 240 224 209 215 216 206 200 190 196 195 196 197 196 190 189 189 195 196 198 191 191 191 191 189 190 186 189 185 184 183 186 184
222 250 239 249 225 222 241 239 234 230 234 248 229 210 208 215 211 203 204 199 199 194 194 197 195 195 193 194 198 208 192 190 190 193 194 191 189 190 191 189 190 186 188 186
232 221 233 247 247 255 237 242 249 243 246 236 232 222 207 199 202 198 192 185 193 197 205 206 201 198 198 199 202 198 195 191 192 193 194 194 193 194 196 194 195 194 199 194
239 230 230 232 241 239 243 231 242 246 237 233 234 218 206 198 192 187 184 182 189 197 202 205 203 199 198 202 203 200 196 195 194 196 196 198 196 198 198 198 199 201 200 205
Wind_Speed_850mb
51 33 45 51 43 34 21 23 27 19 13 19 27 25 29 38 33 30 32 37 43 40 33 30 25 16 7 4 6 10 12 21 22 19 19 19 17 15 12 17 16 18 20 17
33 46 48 44 38 33 28 32 32 17 20 14 27 31 33 31 27 24 28 35 39 37 38 34 27 19 9 4 2 6 10 18 20 17 22 18 17 15 25 16 20 9 15 12
47 46 46 42 35 38 35 35 27 22 21 23 25 33 15 16 17 22 24 28 34 42 43 38 32 23 13 6 3 1 7 16 18 22 20 21 17 20 27 39 35 22 7 12
46 46 48 37 47 41 41 30 29 26 23 22 5 26 22 17 18 18 19 24 31 39 42 39 35 26 18 11 9 4 6 12 15 22 21 23 14 12 21 29 32 37 26 21
51 49 49 51 47 42 36 26 26 29 23 22 30 14 17 10 16 12 14 16 23 35 44 42 37 27 21 16 12 6 4 10 13 19 22 19 16 17 13 21 29 29 26 21
49 40 40 45 34 32 32 16 20 16 21 22 29 17 18 7 7 18 6 4 17 33 43 40 35 28 24 20 14 9 5 9 9 12 20 23 19 22 23 8 18 23 25 25
51 45 43 36 40 26 35 28 19 20 19 22 4 12 21 18 16 16 18 18 16 36 47 45 40 32 28 25 18 12 8 6 11 12 14 20 23 24 24 18 24 24 24 26
45 49 52 37 46 33 42 37 22 21 22 21 13 13 7 1 7 12 12 9 22 42 48 46 41 33 29 27 23 16 10 8 10 11 12 16 24 20 27 24 29 25 23 32
46 49 56 48 42 43 31 36 35 32 28 16 22 10 22 10 9 7 1 9 29 44 47 45 40 34 31 29 25 20 13 10 10 9 10 13 19 30 34 33 28 17 18 22
23 42 32 47 44 47 40 31 21 20 28 29 16 13 14 11 5 8 11 18 33 43 47 46 42 36 33 30 26 22 15 10 12 11 10 12 16 20 29 25 24 23 23 30
31 29 42 33 44 44 25 32 28 25 26 24 20 11 10 5 1 6 10 26 38 45 49 49 43 38 36 32 27 22 18 14 15 13 11 14 15 16 20 22 24 25 27 30
61 26 29 48 40 45 46 44 41 26 32 20 21 18 19 11 9 8 6 25 39 47 48 46 45 41 39 36 30 25 21 17 17 17 15 14 15 15 19 21 25 24 33 38
49 30 31 31 20 28 45 43 42 40 31 34 23 21 14 13 13 12 12 30 39 50 51 46 45 44 41 38 33 28 25 21 20 21 18 17 16 17 19 24 27 26 29 30
51 35 53 44 41 36 43 42 46 43 32 32 33 31 19 19 21 17 19 25 35 53 56 52 48 45 42 39 35 32 28 26 24 23 22 20 19 21 20 23 25 24 27 30
41 51 48 53 40 45 41 45 47 48 46 39 31 33 24 21 22 24 22 26 35 47 56 54 53 49 47 44 39 35 31 31 28 26 23 22 23 23 23 21 23 25 24 28
42 34 44 42 52 44 42 49 47 49 50 44 41 38 23 27 26 26 25 34 41 50 61 60 52 50 50 48 46 41 36 35 32 29 25 24 25 26 26 24 24 26 26 26
38 33 28 43 44 41 46 54 50 47 47 40 43 39 33 26 23 32 35 39 43 47 56 65 64 58 54 52 50 47 41 38 35 31 29 26 26 30 31 28 26 24 27 28
33 40 27 25 33 41 38 42 50 49 44 42 39 35 36 35 36 37 36 39 40 40 48 58 59 56 54 53 52 47 44 43 39 35 32 29 27 31 33 32 29 31 30 28
18 33 23 21 30 18 26 24 46 46 51 46 41 39 42 37 27 30 35 39 43 41 48 55 62 62 55 56 55 53 49 45 43 39 37 33 31 32 35 36 34 34 35 33
13 16 26 24 37 52 26 28 24 29 34 36 46 42 40 37 21 26 43 45 44 39 41 47 55 60 60 58 57 58 55 51 49 45 41 37 34 35 36 38 39 40 36 31
22 21 32 23 28 21 9 34 36 35 15 33 43 52 49 28 41 31 15 39 47 42 38 44 54 64 70 70 64 63 60 59 52 46 43 41 38 37 36 37 40 44 41 30
30 23 21 28 32 25 19 18 36 19 12 15 30 38 43 53 54 32 20 30 47 43 37 48 52 55 61 69 69 63 64 59 53 49 47 45 42 37 38 40 42 43 41 36
30 30 27 27 23 14 30 24 37 22 32 27 28 27 40 43 40 32 29 31 40 34 33 42 49 50 53 66 72 69 65 60 57 54 52 50 46 43 41 44 46 44 47 37
28 13 19 18 29 15 25 21 22 31 29 19 24 22 26 32 29 35 30 34 38 35 32 34 46 53 54 62 77 84 62 61 61 59 55 52 52 49 45 43 45 42 44 41
30 30 31 26 32 26 27 47 39 33 30 24 19 23 25 27 26 29 32 31 33 32 29 34 45 52 54 55 62 66 67 65 64 64 61 57 53 57 52 52 49 49 47 46
30 41 32 27 24 40 40 32 50 42 38 33 31 24 25 25 26 25 24 26 28 27 28 32 38 45 48 48 53 60 70 72 74 74 67 64 59 57 54 53 50 56 49 54
Wind_Direction_850mb
189 202 206 207 217 235 269 251 249 252 271 268 279 289 287 284 271 258 252 229 224 217 210 203 199 200 208 302 318 318 332 349 357 0 356 350 360 360 330 330 306 299 247 228
187 215 209 217 211 223 230 240 245 248 268 273 286 288 293 283 270 265 245 228 221 210 201 199 196 196 196 230 311 326 341 358 9 357 0 11 29 36 30 11 14 35 182 192
204 212 214 213 209 213 225 239 242 258 300 262 261 276 264 273 244 250 246 235 219 208 199 195 193 193 187 194 192 17 7 34 29 29 16 29 43 53 54 63 50 60 114 160
216 217 201 202 213 213 227 219 258 261 265 282 3 293 282 274 275 256 245 225 216 204 198 193 188 187 185 178 171 120 41 55 30 38 18 31 53 49 59 61 60 57 69 114
210 208 192 209 214 208 238 233 233 257 267 284 261 254 288 242 279 292 279 207 209 200 194 188 184 182 178 171 171 157 78 58 47 38 35 34 32 31 69 64 61 44 56 107
225 211 203 214 216 217 225 206 227 245 256 248 255 248 277 273 312 318 317 116 197 188 186 184 180 176 175 169 167 162 124 79 63 46 38 46 35 39 38 69 49 46 64 84
214 202 208 211 207 205 219 214 225 221 219 250 153 246 258 307 312 322 306 312 189 179 179 178 178 178 175 173 172 167 143 101 82 59 46 47 42 43 27 59 101 71 77 74
202 207 191 200 208 192 203 208 230 225 244 251 154 252 222 317 310 290 312 314 169 172 176 177 179 179 175 174 173 167 145 133 108 80 54 53 52 33 30 74 108 98 67 63
197 209 200 204 209 214 190 219 226 255 267 273 273 194 256 254 250 215 236 141 163 169 174 176 179 179 176 175 178 172 155 147 123 101 75 70 59 58 79 84 99 82 58 55
196 208 189 198 207 211 218 202 201 224 241 238 237 234 268 227 346 99 170 169 170 169 173 176 180 181 177 175 177 177 167 153 143 122 101 89 79 71 81 85 72 82 92 73
185 208 187 189 204 200 190 221 215 250 226 235 243 254 107 273 203 338 167 174 176 177 179 177 180 182 179 176 178 177 172 162 152 139 121 105 102 85 90 84 80 84 98 111
201 198 182 209 198 215 201 214 207 222 214 244 274 258 146 249 252 280 196 176 182 179 181 182 178 181 181 181 183 182 175 168 157 152 144 124 114 110 102 91 93 86 94 104
191 210 208 193 192 216 225 212 220 219 245 251 234 241 161 193 222 224 195 178 180 181 179 183 181 183 184 184 187 188 181 174 162 153 153 145 132 133 122 116 107 93 99 103
195 200 209 210 199 191 207 223 217 218 223 234 239 252 194 208 223 198 195 186 184 183 181 183 185 185 186 185 187 190 184 179 167 157 156 157 151 144 137 130 123 113 101 107
192 210 212 226 217 202 210 214 218 218 224 234 235 241 234 236 217 229 200 190 184 185 187 189 187 186 185 183 185 188 187 181 172 163 158 161 163 153 152 142 141 129 125 119
192 216 221 218 222 221 214 218 215 218 225 228 242 251 242 235 254 209 203 192 191 192 194 193 190 185 186 186 184 184 186 184 179 171 166 164 166 165 163 159 153 149 141 133
188 206 206 221 217 225 232 219 216 219 226 228 233 238 243 235 232 227 208 202 200 196 195 194 193 187 186 188 185 186 184 184 185 180 175 171 170 172 172 169 165 159 156 151
196 197 199 207 199 209 242 225 222 225 228 225 241 245 236 236 231 230 222 211 203 200 199 199 195 192 187 185 186 186 185 185 186 186 184 180 174 176 176 174 173 175 169 164
218 190 195 199 201 217 194 205 210 216 231 230 228 226 234 233 232 248 228 215 212 204 204 199 195 192 186 184 185 184 187 188 187 189 189 186 180 178 180 181 182 182 181 179
170 235 202 204 195 221 209 164 197 211 231 219 218 222 227 228 217 235 209 214 212 207 201 194 191 188 186 185 185 185 189 191 192 190 190 189 185 182 182 184 188 192 191 188
180 188 198 182 214 224 187 190 182 198 214 200 213 220 221 219 222 238 231 203 205 197 193 194 187 187 191 187 185 189 191 196 194 190 188 188 188 184 182 183 189 191 189 192
191 187 197 216 210 221 172 205 196 204 155 195 210 221 213 218 224 219 207 195 189 194 199 195 192 187 188 188 188 190 197 195 192 191 189 189 189 183 184 184 185 188 188 189
215 208 208 203 205 78 183 205 205 211 221 224 240 224 209 215 216 206 200 190 196 195 196 197 196 190 189 189 195 196 198 191 191 191 191 189 190 186 189 185 184 183 186 184
222 250 239 249 225 222 241 239 234 230 234 248 229 210 208 215 211 203 204 199 199 194 194 197 195 195 193 194 198 208 192 190 190 193 194 191 189 190 191 189 190 186 188 186
232 221 233 247 247 255 237 242 249 243 246 236 232 222 207 199 202 198 192 185 193 197 205 206 201 198 198 199 202 198 195 191 192 193 194 194 193 194 196 194 195 194 199 194
239 230 230 232 241 239 243 231 242 246 237 233 234 218 206 198 192 187 184 182 189 197 202 205 203 199 198 202 203 200 196 195 194 196 196 198 196 198 198 198 199 201 200 205